Location: �clusier
(49.9361°N, 2.7869°E)
Time: 20:44:39
(UTC+00:00)

FENGYUN 1C DEB - Visible Passes

Search period start: 22 January 2022 00:00
Search period end: 01 February 2022 00:00
Orbit: 833 x 895 km, 98.9° (Epoch: 20 January)

Date Brightness Start Highest point End Pass type
(mag) Time Alt. Az. Time Alt. Az. Time Alt. Az.
22 Jan ? 18:06:24 16° NE 18:06:24 16° NE 18:08:41 10° NNE visible
22 Jan ? 19:48:41 26° N 19:48:41 26° N 19:51:04 10° NNW visible
23 Jan ? 17:58:18 14° NE 17:58:18 14° NE 18:00:34 10° NNE visible
23 Jan ? 19:40:35 28° N 19:40:35 28° N 19:43:11 10° N visible
23 Jan ? 21:22:52 12° NW 21:22:52 12° NW 21:23:21 10° NW visible
24 Jan ? 17:50:12 13° NE 17:50:12 13° NE 17:52:22 10° NNE visible
24 Jan ? 19:32:29 30° N 19:32:29 30° N 19:35:19 10° N visible
24 Jan ? 21:14:46 14° NW 21:14:46 14° NW 21:15:42 10° NW visible
25 Jan ? 17:42:06 11° NE 17:42:17 11° NE 17:44:01 10° NNE visible
25 Jan ? 19:24:23 31° N 19:24:23 31° N 19:27:25 10° N visible
25 Jan ? 21:06:40 16° NW 21:06:40 16° NW 21:08:03 10° NW visible
26 Jan ? 17:34:00 10° NE 17:34:34 10° NE 17:35:10 10° NE visible
26 Jan ? 19:16:17 32° NNE 19:16:17 32° NNE 19:19:32 10° N visible
26 Jan ? 20:58:33 19° NW 20:58:33 19° NW 21:00:20 10° NNW visible
27 Jan ? 19:08:10 32° NNE 19:08:10 32° NNE 19:11:36 10° N visible
27 Jan ? 20:50:27 22° NW 20:50:27 22° NW 20:52:36 10° NNW visible
28 Jan ? 19:00:03 31° NNE 19:00:03 31° NNE 19:03:41 10° N visible
28 Jan ? 20:42:21 25° NW 20:42:21 25° NW 20:44:50 10° NNW visible
29 Jan ? 18:51:57 29° NE 18:51:57 29° NE 18:55:44 10° N visible
29 Jan ? 20:34:14 28° NW 20:34:14 28° NW 20:37:03 10° NNW visible
30 Jan ? 18:43:49 27° NE 18:43:49 27° NE 18:47:47 10° N visible
30 Jan ? 20:26:06 33° NW 20:26:06 33° NW 20:29:15 10° NNW visible
31 Jan ? 18:35:42 25° NE 18:35:42 25° NE 18:39:48 10° N visible
31 Jan ? 20:17:59 37° NW 20:17:59 37° NW 20:21:26 10° NNW visible
